Theta_e
317 319 321 330 329 335 343 349 345 348 347 343 344 349 345 347 354 353 346 350 340 345 345 337 334 332 332 333 334 334 334 333 333 332 332 332 333 333 333 334 335 336 337 337 337 337 337 337 336
317 321 323 321 330 336 341 345 346 343 343 344 346 340 340 343 345 342 349 344 340 343 342 338 335 334 334 334 334 333 334 334 334 335 335 335 335 335 335 335 336 336 336 336 336 336 335 335 335
317 324 321 323 332 337 341 344 342 343 344 346 348 345 351 347 344 346 348 342 343 344 341 338 335 335 335 335 335 336 337 338 339 339 339 340 339 339 339 339 336 334 332 331 331 332 332 333 335
317 317 316 326 338 341 340 343 339 345 344 344 348 354 353 346 345 348 348 346 342 341 339 337 336 336 336 337 339 339 334 334 337 334 334 333 333 334 335 338 337 334 333 332 332 333 332 333 334
318 313 318 323 331 340 339 339 339 346 345 345 346 355 358 351 351 351 351 344 340 341 339 337 337 338 340 340 328 329 330 329 329 331 332 330 329 330 333 327 326 327 326 328 329 330 332 334 333
314 313 318 323 336 339 338 337 340 343 336 349 353 352 352 352 352 353 349 342 340 338 339 340 342 341 327 324 328 329 330 329 329 330 330 329 328 327 327 326 326 325 326 326 327 327 327 327 328
314 312 318 321 332 337 338 334 336 335 346 348 348 353 349 350 352 351 342 341 340 341 341 333 323 321 324 327 327 327 326 325 326 329 327 325 322 318 315 316 321 321 322 324 325 324 323 322 321
311 313 320 320 334 332 334 336 335 335 343 338 345 349 351 350 350 345 343 342 343 339 324 322 325 328 329 330 329 327 326 324 322 320 318 316 317 317 315 314 315 318 319 321 322 321 321 320 319
313 316 318 321 321 324 334 336 331 331 334 338 342 342 345 350 348 346 344 346 343 332 323 325 327 328 329 331 331 327 326 324 322 320 319 319 319 319 318 317 314 314 314 314 315 316 316 318 318
314 316 321 320 321 323 335 334 332 332 335 342 345 345 349 348 340 347 346 346 340 330 325 326 327 328 329 329 330 328 327 324 322 321 321 321 321 321 321 319 316 316 316 317 316 315 315 317 316
315 317 318 317 318 321 334 334 331 337 338 342 346 350 350 345 336 345 346 341 332 326 326 326 327 329 325 324 323 324 325 323 322 322 322 323 323 321 320 319 320 320 320 320 318 318 318 317 317
317 315 315 315 318 332 334 331 330 341 340 341 345 348 348 343 340 346 336 335 330 329 329 327 328 328 323 322 322 323 323 322 321 322 324 322 321 321 322 322 322 322 321 321 321 321 320 319 318
318 317 316 315 317 330 329 328 325 338 338 343 343 349 348 342 345 346 330 330 329 328 327 326 326 326 323 322 322 323 322 321 323 324 323 323 321 322 322 323 322 322 322 320 318 317 317 316 315
317 315 314 316 317 318 327 320 327 328 338 336 343 349 347 344 331 329 330 330 329 326 324 324 324 324 324 322 323 322 320 320 321 320 320 320 319 319 318 319 318 320 319 316 315 314 315 314 314
316 317 314 317 317 320 318 322 326 330 338 331 329 337 341 328 329 331 330 329 328 325 322 322 323 324 324 323 321 321 320 320 319 317 318 319 318 318 316 316 316 316 315 315 314 316 316 315 315
316 313 315 315 319 318 316 319 318 321 331 328 327 328 330 328 330 331 330 328 327 327 324 323 323 323 323 322 321 321 320 319 315 316 316 315 312 311 312 311 311 310 313 314 314 314 313 313 313
311 316 316 315 314 317 316 316 317 318 330 326 328 329 330 330 329 330 330 328 327 326 324 322 321 323 322 321 321 320 319 316 315 314 311 310 309 310 310 311 312 311 310 311 312 313 313 312 311
315 316 315 315 315 315 315 315 318 317 325 324 329 329 330 330 330 330 330 329 326 325 324 323 322 322 322 321 320 319 317 315 315 314 311 311 311 312 312 312 312 310 310 309 308 309 309 310 311
316 316 316 314 318 316 316 320 323 321 318 314 324 328 329 330 330 330 329 327 326 324 324 323 323 322 322 321 319 319 317 316 315 314 312 312 313 312 312 312 311 310 309 308 309 310 311 311 312
316 316 320 317 319 318 324 325 324 326 325 322 315 327 330 331 330 330 328 327 327 324 323 323 322 321 322 320 319 318 317 316 315 314 312 313 313 312 311 310 310 309 308 308 310 311 311 311 311
320 320 321 321 319 318 319 320 325 325 324 327 326 328 331 332 331 329 327 326 326 326 326 325 323 322 321 321 319 318 317 316 315 314 313 314 311 310 309 309 310 308 309 308 310 310 310 311 311
322 320 320 320 318 318 320 318 322 324 323 328 329 330 331 331 330 329 326 325 327 328 326 324 324 323 321 320 319 318 316 315 314 314 314 311 309 309 309 309 309 308 307 308 310 308 308 309 309
321 320 321 321 319 317 321 321 323 324 325 331 332 333 331 331 329 329 328 327 326 326 325 325 324 323 320 320 317 316 316 316 315 313 310 309 309 309 309 309 309 308 306 308 308 306 307 308 307
321 321 319 318 317 322 322 324 325 327 328 334 333 333 332 331 331 330 328 327 326 325 325 324 324 321 319 318 318 317 315 313 310 309 309 309 309 308 309 308 309 306 305 306 307 305 305 306 306
319 318 320 325 324 325 323 327 326 324 327 332 332 332 331 330 329 330 327 315 314 315 317 318 317 316 316 316 314 312 310 309 308 309 309 309 308 308 308 308 307 305 305 305 305 305 306 306 307
320 318 321 329 326 324 323 328 324 326 330 331 330 329 327 322 317 315 313 312 311 312 312 313 313 312 311 311 310 309 309 309 308 308 309 308 307 306 306 305 305 305 305 306 306 306 306 306 306
322 321 318 320 321 321 324 327 323 320 322 320 319 317 313 312 311 310 310 310 309 308 308 308 308 309 309 308 308 308 308 307 306 307 307 307 307 306 305 305 305 306 306 307 307 306 307 306 306
324 321 324 321 328 329 326 330 328 320 317 314 315 313 311 310 308 307 307 307 306 305 304 304 303 305 307 307 307 306 306 306 306 306 306 306 306 307 306 306 306 306 307 307 305 306 306 306 306
324 324 324 322 323 327 327 325 322 318 316 312 310 310 309 309 308 308 306 306 305 304 303 303 304 304 305 305 306 304 305 305 305 306 306 307 306 307 307 307 307 308 307 306 306 305 305 305 306
324 325 323 326 327 323 323 323 319 314 312 312 312 311 310 308 309 307 306 305 304 303 303 303 303 304 304 305 305 305 305 306 306 306 307 307 307 307 307 307 308 307 306 305 306 305 304 305 305
Wind_Speed
12 9 2 2 4 6 2 1 2 2 5 6 11 6 14 19 8 4 11 13 17 17 16 15 14 15 15 16 16 16 15 15 15 15 15 14 14 12 12 11 10 9 8 8 7 7 7 8 9
14 2 3 2 5 4 2 4 6 5 12 22 22 11 10 13 10 6 13 20 19 17 16 16 16 16 16 16 17 16 16 15 15 15 15 15 14 13 13 12 12 12 11 11 11 11 12 12 12
7 3 3 4 3 4 5 6 6 4 13 5 7 13 9 2 2 12 10 24 21 19 17 17 17 17 17 16 16 17 16 16 15 16 16 15 15 14 14 15 15 14 14 13 14 15 16 16 16
3 6 4 4 2 3 8 9 6 3 4 9 7 6 5 10 7 8 21 22 23 21 18 17 17 17 18 18 17 17 18 17 17 17 17 17 17 14 14 14 14 14 14 14 16 17 17 18 19
4 3 4 3 3 2 3 9 11 8 3 3 2 4 4 2 15 28 24 23 24 21 19 18 17 17 18 18 20 21 19 19 19 17 16 18 17 17 15 17 17 17 17 16 17 18 18 17 18
4 3 4 1 4 2 4 5 5 6 4 3 4 4 1 14 27 25 25 25 23 22 20 19 18 19 21 24 23 22 21 20 18 18 19 16 17 17 16 16 16 15 16 17 18 19 19 19 19
5 4 3 4 4 3 5 11 7 8 7 3 7 4 1 5 20 25 25 25 23 23 21 21 22 24 24 23 21 20 18 17 16 17 16 15 16 16 17 17 16 16 16 16 18 20 22 22 22
5 4 3 3 5 7 6 8 7 8 6 4 6 7 6 8 20 25 25 24 24 23 24 25 26 25 22 20 18 17 17 17 18 18 17 18 21 21 22 22 20 20 20 20 21 23 24 23 24
4 4 2 4 6 7 4 4 2 2 8 4 8 6 7 24 27 26 25 22 23 23 25 25 24 22 19 16 14 14 14 14 16 17 18 14 18 19 20 23 20 20 20 23 24 25 27 26 25
4 3 5 3 4 6 3 6 9 8 5 2 5 8 24 27 27 23 23 20 24 24 23 22 20 18 14 13 13 13 11 12 14 15 16 16 17 18 20 21 21 21 20 26 24 25 29 27 28
4 4 5 6 9 7 6 7 4 9 6 8 15 14 20 23 22 22 20 19 26 24 23 21 20 18 16 16 15 11 10 11 12 13 14 15 17 19 21 21 22 22 20 26 23 25 27 28 28
2 7 4 9 6 6 6 8 4 7 7 12 19 23 21 20 19 22 19 27 26 22 21 22 21 24 21 17 15 14 11 8 10 12 15 17 18 18 18 20 21 19 21 21 21 22 22 24 27
4 6 9 8 7 3 7 7 8 7 5 11 15 17 19 16 17 19 20 29 33 33 32 30 28 26 24 20 17 15 16 14 15 13 10 12 15 13 14 16 16 19 19 19 22 24 26 28 30
4 6 9 2 4 4 9 3 8 8 11 12 19 18 18 19 20 23 25 27 32 36 32 29 26 23 23 20 19 19 18 15 12 9 8 11 11 11 13 14 17 16 17 23 27 29 29 28 28
4 5 7 6 1 3 8 0 6 11 16 14 17 19 19 16 27 34 37 30 38 35 31 28 26 23 22 22 22 19 15 11 10 8 7 9 11 12 15 17 19 20 24 26 25 23 23 24 23
5 5 5 5 2 3 3 9 7 7 12 10 13 14 18 19 28 28 27 30 33 35 32 29 26 22 21 20 16 13 9 6 7 7 9 12 14 15 16 18 18 20 22 20 18 19 23 23 25
7 2 5 9 5 2 6 8 7 8 13 10 13 15 15 14 12 21 23 28 32 32 29 24 20 21 20 16 13 9 6 5 6 7 9 9 10 11 15 17 18 20 23 22 22 19 20 24 27
4 5 6 5 7 2 4 7 5 2 9 8 11 12 13 13 11 14 17 23 27 25 24 24 18 20 18 15 11 7 5 4 5 8 9 10 11 12 14 17 19 24 25 23 23 24 23 24 25
3 1 3 5 6 3 7 9 9 8 9 5 2 5 8 8 11 16 21 27 26 23 20 18 18 16 13 11 9 6 2 4 6 8 10 11 12 13 15 20 23 23 22 23 21 21 22 24 23
1 2 4 6 6 7 8 9 5 11 4 5 8 8 9 9 10 15 19 23 22 21 17 14 13 10 10 8 7 3 2 6 7 8 9 10 11 15 19 22 20 20 22 22 20 18 19 16 16
2 5 1 2 4 3 4 6 8 5 6 12 8 5 9 13 12 12 15 16 16 15 15 15 14 13 10 8 6 4 6 8 9 9 10 10 14 19 22 18 18 21 18 20 18 16 18 14 16
1 2 1 1 4 2 3 3 3 7 6 13 11 10 9 8 9 7 10 12 15 16 13 16 12 10 9 9 6 7 9 10 9 10 11 14 18 20 19 16 19 18 18 19 16 17 16 15 14
4 4 4 2 3 3 6 4 5 6 7 8 7 10 9 9 11 8 10 2 5 3 11 8 9 9 11 9 8 8 9 9 11 9 16 19 20 19 17 18 18 18 20 17 16 19 17 17 16
2 3 6 4 3 3 4 3 5 3 4 2 3 9 8 11 11 11 11 0 10 6 15 10 11 7 7 8 8 8 7 5 11 18 20 20 20 20 19 18 15 18 18 19 17 19 17 16 15
7 7 4 5 4 5 3 3 6 4 3 7 8 8 9 8 7 5 9 14 13 16 13 9 6 7 7 6 5 4 5 11 15 17 18 17 19 19 19 17 17 19 17 17 17 16 15 15 15
4 5 5 4 3 5 3 3 3 1 4 6 6 6 7 6 7 11 16 15 22 25 22 17 13 9 8 8 6 9 12 13 16 16 15 16 16 19 18 18 16 16 14 14 16 17 16 15 16
2 2 1 5 2 2 2 1 4 6 5 7 9 10 10 11 11 12 16 20 18 14 13 11 10 9 6 7 8 10 12 16 17 15 14 13 15 18 17 14 13 15 16 15 19 19 18 18 16
3 3 2 3 1 3 3 2 4 4 6 8 10 9 9 9 9 8 12 12 13 14 14 12 10 8 8 10 11 14 16 17 15 14 13 14 16 16 16 15 16 19 19 15 19 19 16 17 16
4 4 4 4 4 4 2 5 2 6 6 10 8 7 8 7 7 8 11 10 9 10 11 10 10 9 10 12 12 16 15 14 12 12 14 14 14 14 15 16 18 18 16 15 17 18 17 15 15
1 3 3 4 4 0 3 4 4 8 10 11 10 9 6 6 6 9 2 5 4 4 9 14 12 12 13 13 14 13 15 16 16 16 16 15 14 15 15 13 13 13 13 13 13 17 16 13 12
Wind_Direction
339 341 157 100 64 67 57 331 279 135 111 106 73 339 337 301 285 193 166 162 152 145 142 136 125 117 112 108 106 102 99 96 93 90 87 84 81 78 75 68 59 48 36 23 10 356 344 332 322
335 350 86 79 77 84 249 202 179 159 154 155 130 138 212 265 252 135 141 156 153 143 139 131 125 118 111 109 106 102 97 92 88 83 79 77 74 68 64 58 48 38 26 14 3 356 347 338 331
344 48 76 86 120 143 160 219 193 214 169 79 130 199 190 197 173 150 163 151 148 137 135 129 123 117 114 108 105 102 96 92 87 83 77 72 67 62 57 54 43 35 26 19 10 0 352 343 337
348 14 35 79 212 192 149 191 164 210 243 212 220 124 87 190 176 159 144 150 144 138 136 128 123 119 114 111 106 99 94 91 87 80 76 73 62 56 57 48 33 24 17 11 5 357 350 343 338
55 54 53 62 300 218 209 192 168 168 226 215 228 114 95 49 144 142 156 152 142 137 135 130 126 121 117 113 106 97 92 94 93 86 83 81 71 64 63 53 48 40 31 23 18 13 8 5 3
48 96 63 120 262 243 166 161 180 191 200 342 98 84 126 147 141 155 156 150 142 136 135 131 126 121 117 113 106 98 95 90 90 88 85 80 66 62 52 43 39 33 25 26 24 20 16 12 9
115 85 165 175 252 290 204 155 197 200 137 147 135 100 78 191 152 155 155 149 143 138 134 129 123 117 113 111 107 98 90 86 86 84 75 68 62 53 45 38 31 22 17 11 6 3 0 357 355
105 91 115 206 214 264 191 154 176 177 174 118 160 164 190 188 155 153 152 150 146 141 136 134 127 123 121 117 109 100 92 83 79 69 65 67 53 44 36 25 17 15 12 6 2 0 357 352 351
127 66 237 224 177 259 156 118 179 192 126 222 169 147 170 155 158 149 150 150 149 147 143 137 132 128 125 121 117 104 92 79 65 56 49 44 35 33 27 21 19 13 9 1 355 355 351 348 348
95 139 231 202 211 268 178 142 178 148 138 223 95 93 133 150 154 155 156 157 156 151 145 140 134 127 124 122 122 117 95 73 59 48 39 32 25 21 14 11 7 3 357 357 349 347 347 345 346
181 214 217 258 232 192 177 152 235 127 186 185 164 150 152 162 170 165 157 159 156 152 152 148 142 132 124 117 107 99 89 68 53 41 36 31 21 8 2 2 359 356 346 343 339 335 339 340 340
286 261 213 268 220 153 179 139 195 174 221 165 164 165 161 172 175 163 151 150 150 161 160 153 153 146 135 119 107 94 94 73 50 40 37 27 11 8 3 357 349 348 339 332 330 331 332 331 328
10 297 307 261 251 174 131 157 181 209 196 152 157 154 168 173 165 159 149 146 145 143 144 146 147 148 136 121 116 107 98 85 79 74 51 13 5 1 351 343 341 334 338 345 339 335 330 325 323
271 269 287 72 241 176 154 155 127 219 179 135 154 167 171 174 161 143 159 158 149 146 146 146 145 139 137 122 116 108 99 93 92 62 29 5 8 5 3 351 351 348 334 328 326 325 323 323 325
272 321 345 5 326 275 129 253 218 182 179 145 163 173 173 170 161 168 169 166 155 151 146 142 136 131 131 125 119 114 106 98 78 48 16 8 355 348 341 334 330 326 320 316 317 317 317 321 321
21 49 7 272 313 164 58 231 243 170 152 162 152 170 172 174 172 170 166 162 159 152 145 137 134 137 134 129 128 126 118 83 52 27 5 350 344 343 343 338 332 333 329 326 321 317 316 314 317
12 360 329 319 202 216 164 236 234 175 176 159 170 164 170 161 162 170 169 162 156 148 136 136 147 147 142 144 141 128 109 74 44 0 351 1 353 348 346 341 328 332 331 326 325 321 317 314 315
315 338 326 282 313 294 301 297 329 68 199 162 168 170 161 166 166 150 144 147 143 139 144 147 156 151 153 147 138 122 94 57 6 347 351 350 344 340 333 331 327 329 328 328 323 319 320 317 317
279 253 275 279 286 53 56 37 28 6 34 57 310 135 156 140 116 125 136 147 149 149 153 157 157 155 160 152 141 131 103 340 326 327 336 332 333 333 324 326 325 330 332 331 330 329 329 327 329
170 80 313 297 333 94 64 22 354 47 16 21 191 179 149 128 127 131 144 152 158 157 160 167 168 177 178 169 150 142 279 281 293 296 308 313 324 330 323 322 325 329 331 331 333 336 334 325 326
59 121 2 238 343 44 87 7 10 347 27 31 11 90 121 140 138 138 142 156 160 156 185 188 180 186 181 176 174 208 256 279 286 282 299 317 326 327 325 322 322 328 331 330 328 336 336 315 322
101 221 252 71 55 266 26 267 18 329 3 31 37 76 97 105 96 78 88 119 155 192 211 200 180 190 197 202 244 263 280 276 290 291 303 318 323 324 324 319 322 329 331 329 327 334 331 333 320
230 43 0 13 87 52 351 76 299 351 16 19 35 77 84 91 95 90 98 193 216 252 233 225 214 214 221 239 256 290 286 292 298 307 314 322 324 325 323 323 324 331 332 330 325 331 329 324 316
57 48 39 47 72 34 284 110 319 325 303 62 61 89 94 101 102 101 107 103 330 279 248 218 223 256 290 298 311 308 310 321 327 324 321 319 324 326 325 328 327 331 333 329 323 327 328 330 323
63 49 349 356 6 230 303 57 229 258 240 159 131 102 92 97 100 90 67 56 59 75 70 65 37 25 10 15 31 25 349 338 332 321 316 324 329 329 330 331 330 328 332 331 333 336 337 335 330
331 144 151 238 224 261 344 166 217 106 39 114 87 78 80 77 72 83 78 68 57 59 58 53 40 25 7 353 344 340 341 337 330 321 316 328 337 342 337 330 327 336 344 347 342 342 341 338 332
287 348 224 116 45 69 269 227 25 94 91 90 99 90 87 84 78 78 77 72 65 56 47 35 9 358 350 334 344 347 340 336 337 335 328 332 340 346 346 344 347 349 339 342 347 341 338 333 326
92 150 354 6 165 261 283 240 211 176 122 94 101 97 76 72 70 61 61 65 62 36 18 9 353 343 1 5 355 343 330 328 334 342 356 345 337 332 337 350 345 342 346 355 354 357 354 353 349
359 9 48 118 138 184 242 263 296 182 139 112 95 81 84 82 72 36 28 38 36 30 20 11 11 8 356 354 347 341 346 348 349 346 344 339 333 330 330 335 339 347 359 2 2 1 357 356 0
90 51 104 115 269 226 153 269 359 107 114 120 117 112 106 93 81 95 336 308 338 6 13 8 2 358 359 353 352 2 354 351 346 341 340 337 328 327 331 337 347 353 358 357 2 1 7 6 7